Regional Weather Roundup
Issued by NWS State College, PA

Home | Current Version | Previous Version | Graphics & Text | Print | Product List | Glossary On
Versions: 1 2 3 4 5 6 7 8 9 10 11 12 13 14 15 16 17 18 19 20 21 22 23 24 25 26 27 28 29 30 31 32 33 34 35 36 37 38 39 40 41 42 43 44 45 46 47 48 49 50
094
ASUS41 KCTP 281703
RWRCTP

REGIONAL WEATHER ROUNDUP
NATIONAL WEATHER SERVICE STATE COLLEGE PA
100 PM EDT FRI APR 28 2017

Note: "fair" indicates few or no clouds below 12,000 feet with no
significant weather and/or obstructions to visibility.

* = STATION THAT DOES NOT REPORT PRECIPITATION /E.G. RAIN...SNOW...ETC/
    THUNDER OR FOG.

PAZ002>004-007>009-013>016-020>023-029>032-281800-
WESTERN PENNSYLVANIA

CITY           SKY/WX    TMP DP  RH WIND       PRES   REMARKS
ERIE           SUNNY     55  44  66 NW12      30.03F
MEADVILLE      SUNNY     62  46  55 S12       30.04S
FRANKLIN*      SUNNY     64  45  48 SW7       30.05F
NEW CASTLE     FAIR      65  48  54 SW7       30.06S
BEAVER COUNTY  SUNNY     64  48  55 SW6       30.06R
BUTLER*        PTSUNNY   64  48  55 S6        30.08R
PITTSBURGH INT PTSUNNY   67  46  47 S9        30.05S
PITTSBURGH     PTSUNNY   65  43  44 SW8       30.06S
INDIANA*       SUNNY     68  43  40 SW9G17    30.09F
LATROBE        MOSUNNY   68  48  49 SW14      30.07F
WASHINGTON CO* CLOUDY    66  46  48 S3        30.08S
$$

PAZ004>006-010>012-017>019-024>028-033>037-041-042-045-046-049>053-281800-
CENTRAL PENNSYLVANIA

CITY           SKY/WX    TMP DP  RH WIND       PRES   REMARKS
BRADFORD       SUNNY     64  41  42 SW9       30.04S
DUBOIS         MOSUNNY   65  44  46 SW7       30.05S
CLEARFIELD     MOSUNNY   67  45  45 VRB7      30.06F
JOHNSTOWN      SUNNY     68  45  43 SW8       30.07S
ALTOONA        SUNNY     74  46  36 VRB7      30.07F
STATE COLLEGE  SUNNY     66  48  52 W6        30.06F
WILLIAMSPORT   SUNNY     73  48  40 W6        30.01F
SELINSGROVE    SUNNY     73  53  49 VRB5      30.03F
FT INDIANTOWN  MOSUNNY   76  45  33 S3        30.03F
CAPITAL CITY   SUNNY     77  47  34 VRB7      30.02F
HARRISBURG     PTSUNNY   77  50  38 NW8       30.02F
YORK           SUNNY     77  50  38 SW7       30.03F
$$

PAZ038>040-043-044-047-048-054-055-060>062-067>071-281800-
EASTERN PENNSYLVANIA

CITY           SKY/WX    TMP DP  RH WIND       PRES   REMARKS
SCRANTON       SUNNY     76  52  43 SW9       30.00F
MOUNT POCONO   SUNNY     73  35  25 W12       30.04S
ALLENTOWN      SUNNY     79  48  33 VRB7      30.01S
QUAKERTOWN*    SUNNY     77  48  36 W5        30.03F
READING        SUNNY     77  50  38 W7        30.01F
LANCASTER      SUNNY     76  53  44 NW9       30.03F
COATESVILLE    SUNNY     77  52  41 NW8       30.05F
POTTSTOWN      SUNNY     77  47  34 NW7       30.03F
BLUE BELL      SUNNY     79  55  44 W8G16     30.03S
DOYLESTOWN     SUNNY     78  50  37 W9        30.01F
WILLOW GROVE   NOT AVBL
NORTH PHILA    SUNNY     82  55  39 W10       30.02F
PHILADELPHIA   MOSUNNY   82  50  32 SW15      30.01F
$$




USA.gov is the U.S. government's official web portal to all federal, state and local government web resources and services.